Orbital Elements at Epoch 2459200.5 (2020-Dec-17.0) TDB
Reference: JPL 34 (heliocentric ecliptic J2000)
Element | Value | Uncertainty (1-sigma) | Units |
e | .1636956079384333 | 3.1812e-08 | |
a | 3.120655429621079 | 1.3614e-08 | au |
q | 2.609817841902883 | 9.7391e-08 | au |
i | .3295541762579167 | 4.0293e-06 | deg |
node | 348.2870383950543 | 0.00060626 | deg |
peri | 82.7044076184673 | 0.0006064 | deg |
M | 156.3045171771106 | 1.2719e-05 | deg |
tp | 2458326.248909481401 (2018-Jul-26.74890948) | 6.9073e-05 | TDB |
period | 2013.571957297119 5.51 | 1.3177e-05 3.608e-08 | d yr |
n | .1787867568851323 | 1.17e-09 | deg/d |
Q | 3.631493017339274 | 1.5843e-08 | au |
|
| | Orbit Determination Parameters
Additional Information
|